Location: PSU-Greenbush Astrophysical Observatory
(37.5140°N, 94.9880°W)
Time: 11:44:00
(UTC-06:00)

SR - Visible Passes

Search period start: 21 January 2020 00:00
Search period end: 31 January 2020 00:00
Orbit: 574 x 882 km, 66.7° (Epoch: 20 January)

Date Brightness Start Highest point End Pass type
(mag) Time Alt. Az. Time Alt. Az. Time Alt. Az.
21 Jan ? 06:44:19 10° NNE 06:45:59 11° NE 06:47:37 10° ENE visible
23 Jan ? 06:45:27 10° N 06:49:17 19° NE 06:52:56 10° E visible
24 Jan ? 05:57:51 10° NNE 05:58:57 11° NE 06:00:02 10° NE visible
25 Jan ? 06:47:30 10° N 06:52:25 31° NE 06:56:56 10° ESE visible
26 Jan ? 05:58:37 10° N 06:02:16 18° NE 06:05:44 10° E visible
27 Jan ? 06:49:56 10° NNW 06:55:20 57° ENE 07:00:14 10° SE visible
28 Jan ? 06:00:37 10° N 06:05:24 30° NE 06:09:50 10° ESE visible
29 Jan ? 05:11:48 10° N 05:15:15 17° NE 05:18:32 10° E visible
29 Jan ? 06:52:38 10° NNW 06:58:02 74° WSW 07:02:56 10° SSE visible
30 Jan ? 06:02:59 10° NNW 06:08:21 54° ENE 06:13:12 10° SE visible
